トンボー-テナグラ彗星

274P/Tombaugh-Tenagra (1931)

English version
Home page
Updated on December 29, 2012

---------------------------------------------------------------------

・ プロフィール

符号 274P/1931 AN
発見日 1931年1月11日
発見光度 12.5等
発見者 Clyde Tombaugh (Lowell Observatory)

・ 軌道要素

Epoch 1931 Jan. 19.0 TT = JDT 2426360.5
T 1931 Jan. 15.24391 TT                                 MPC
q   2.4368809            (2000.0)            P               Q
n   0.10895417     Peri.   34.47426     -0.47986986     -0.83209120
a   4.3415034      Node    85.67590     +0.72900539     -0.55454533
e   0.4387011      Incl.   16.19522     +0.48813529     +0.01018375
P   9.05
From 125 observations 1931 Jan. 12-2012 Dec. 13, mean residual 0".53.

・ 光度変化

        m1 = 4 + 5 logΔ + 20 log r

        ※ 灰色の曲線は、m1 = 12.5 + 5 logΔ + 10.0 log r の光度曲線です。

---------------------------------------------------------------------

軌道要素はM.P.E.C. 2012-X79に掲載されたものです。
光度グラフはComet for Windowsで作成したものです。

---------------------------------------------------------------------

Copyright(C) Seiichi Yoshida (comet@aerith.net). All rights reserved.